#timestamp,LO_Frequency,Hit 
1502222415.1,286047033.3,N
1502222416.0,286047033.3,N
1502222435.8,286047035.8,N
1502222455.6,286047035.6,N
1502222475.5,286047035.7,N
1502222495.3,286047035.1,N
1502222515.1,286047035.2,N
1502222535.9,286047037.0,N
1502222555.7,286047039.6,N
1502222575.5,286047038.7,N
1502222595.3,286047038.7,N
1502222615.2,286047039.2,N
1502222635.0,286047039.2,N
1502222635.9,286047039.2,N
1502222655.7,286047036.9,N
1502222675.6,286047038.0,N
1502222695.4,286047039.3,N
1502222715.2,286047039.2,N
1502222735.1,286047036.5,N
1502222736.0,286047036.5,N
1502222755.8,286047037.0,N
1502222775.6,286047037.5,N
1502222795.5,286047037.5,N
1502222815.3,286047036.7,N
1502222835.1,286047037.6,N
1502222855.9,286047037.8,N
1502222875.7,286047035.4,N
1502222895.5,286047036.1,N
1502222915.3,286047035.5,N
1502222935.2,286047037.3,N
1502222955.0,286047039.5,N
1502222955.9,286047039.5,N
1502222975.7,286047040.5,N
1502222995.6,286047043.5,N
1502223015.4,286047042.1,N
1502223035.2,286047041.8,N
1502223055.1,286047044.4,N
1502223056.0,286047044.4,N
1502223075.8,286047044.1,N
1502223095.6,286047044.3,N
1502223115.5,286047041.3,N
1502223135.3,286047044.1,N
1502223155.1,286047042.5,N
1502223175.9,286047043.8,N
1502223195.7,286047044.4,N
1502223215.5,286047042.5,N
1502223235.4,286047042.2,N
1502223255.2,286047043.8,N
1502223275.0,286047044.4,N
1502223275.9,286047044.4,N
1502223295.7,286047041.8,N
1502223315.6,286047041.3,N
1502223335.4,286047042.1,N
1502223355.2,286047042.0,N
1502223375.1,286047042.3,N
1502223376.0,286047042.3,N
1502223395.8,286047042.4,N
1502223415.6,286047042.5,N
1502223435.5,286047042.8,N
1502223455.3,286047039.8,N
1502223475.1,286047041.3,N
1502223495.9,286047041.5,N
1502223515.7,286047041.4,N
1502223535.5,286047043.8,N
1502223555.4,286047041.7,N
1502223575.2,286047041.8,N
1502223595.0,286047042.0,N
1502223595.9,286047042.0,N
1502223615.7,286047043.8,N
1502223635.6,286047043.6,N
1502223655.4,286047041.9,N
1502223675.2,286047043.8,N
1502223695.1,286047041.5,N
1502223696.0,286047041.5,N
1502223715.8,286047043.4,N
1502223735.6,286047043.8,N
1502223755.5,286047047.2,N
1502223775.3,286047047.4,N
1502223795.1,286047047.1,N
1502223815.9,286047048.7,N
1502223835.7,286047048.6,N
1502223855.5,286047048.4,N
1502223875.3,286047048.9,N
1502223895.2,286047047.5,N
1502223915.0,286047046.2,N
1502223915.9,286047046.2,N
1502223935.7,286047046.2,N
1502223955.6,286047047.8,N
1502223975.4,286047048.5,N
1502223995.2,286047049.2,N
1502224015.1,286047049.1,N
1502224016.0,286047049.1,N
1502224035.8,286047048.6,N
1502224055.6,286047049.2,N
1502224075.8,286047048.4,N
1502224095.6,286047046.3,N
1502224115.5,286047048.1,N
1502224135.3,286047048.0,N
1502224155.1,286047048.4,N
1502224175.9,286047050.4,N
1502224195.7,286047049.9,N
1502224215.5,286047050.1,N
1502224235.3,286047049.5,N
1502224255.2,286047049.6,N
1502224275.0,286047052.3,N
1502224275.9,286047052.3,N
1502224295.7,286047049.6,N
1502224315.6,286047049.4,N
1502224335.4,286047049.3,N
1502224355.2,286047049.6,N
1502224375.1,286047050.0,N
1502224376.0,286047050.0,N
1502224395.8,286047050.0,N
1502224415.6,286047048.5,N
1502224435.5,286047050.8,N
1502224455.3,286047049.3,N
1502224475.1,286047052.2,N
1502224495.9,286047051.8,N
1502224515.7,286047053.4,N
1502224535.5,286047053.5,N
1502224555.3,286047053.0,N
1502224575.2,286047053.8,N
1502224595.0,286047053.3,N
1502224595.9,286047053.3,N
1502224615.7,286047051.6,N
1502224635.6,286047051.7,N
1502224655.4,286047051.0,N
1502224675.2,286047053.2,N
1502224695.1,286047053.0,N
1502224696.0,286047053.0,N
1502224715.8,286047053.0,N
1502224735.6,286047053.2,N
1502224755.5,286047053.2,N
1502224775.3,286047053.2,N
1502224795.1,286047053.9,N
1502224815.9,286047055.5,N
1502224835.7,286047054.7,N
1502224855.5,286047056.0,N
1502224875.3,286047058.0,N
1502224895.2,286047060.2,N
1502224915.0,286047057.8,N
1502224915.9,286047057.8,N
1502224935.7,286047057.9,N
1502224955.6,286047058.3,N
1502224975.4,286047056.7,N
1502224995.2,286047056.5,N
1502225015.1,286047054.6,N
1502225016.0,286047054.6,N
1502225035.8,286047056.1,N
1502225055.6,286047058.1,N
1502225075.5,286047057.5,N
1502225095.3,286047057.5,N
1502225115.1,286047058.2,N
1502225135.9,286047056.1,N
1502225155.7,286047056.8,N
1502225175.5,286047057.0,N
1502225195.3,286047058.3,N
1502225215.2,286047059.8,N
1502225235.9,286047060.2,N
1502225255.7,286047060.4,N
1502225275.6,286047057.9,N
1502225295.4,286047060.1,N
1502225315.2,286047060.0,N
1502225335.1,286047059.7,N
1502225336.0,286047059.7,N
1502225355.8,286047060.0,N
1502225375.6,286047059.9,N
1502225395.5,286047061.9,N
1502225415.3,286047059.8,N
1502225435.1,286047059.2,N
1502225455.8,286047062.0,N
1502225475.7,286047060.0,N
1502225495.5,286047061.4,N
1502225515.3,286047061.9,N
1502225535.2,286047061.8,N
1502225555.9,286047061.0,N
1502225575.7,286047061.5,N
1502225595.6,286047059.3,N
1502225615.4,286047059.2,N
1502225635.2,286047060.6,N
1502225655.1,286047065.2,N
1502225656.0,286047065.2,N
1502225675.8,286047064.7,N
1502225695.6,286047065.1,N
1502225715.4,286047064.5,N
1502225735.3,286047065.1,N
1502225755.1,286047059.0,N
1502225775.8,286047061.6,N
1502225795.7,286047061.4,N
1502225815.5,286047061.2,N
1502225835.4,286047061.6,N
1502225855.2,286047058.9,N
1502225875.0,286047065.1,N
1502225875.9,286047065.1,N
1502225895.8,286047064.4,N
1502225915.6,286047062.9,N
1502225935.4,286047061.2,N
1502225955.3,286047063.1,N
1502225975.1,286047062.5,N
1502225976.0,286047062.5,N
1502225995.8,286047062.1,N
